Location: Ch�tillon
(48.8024°N, 2.2935°E)
Time: 19:12:04
(UTC+00:00)

RS-15 - Pass Details

Date: 04 July 2022
Orbit: 1881 x 2163 km, 64.8° (Epoch: 11 August)

Event Time Altitude Azimuth Distance (km) Brightness Sun altitude
Rises 21:17:24 0° 314° (NW) 5,690 12.5 -10.2°
Reaches altitude 10° 21:20:59 10° 318° (NW) 4,691 11.6 -10.5°
Maximum altitude 21:33:18 62° 39° (NE) 2,363 8.5 -11.7°
Drops below altitude 10° 21:45:15 10° 119° (ESE) 4,575 9.4 -12.7°
Enters shadow 21:45:53 - 120° (ESE) 4,755 9.5 -12.8°
